Theta_e
306 299 297 295 297 300 302 303 304 305 304 303 303 303 302 302 303 306 308 313 320 317 316 316 317 316 319 323 327 329 330 329 329 328 329 330 330 331 331 332 333 333 334 339 340 342 343 344 345 346 347 347 348 348 348 349 349 349 349 350 349 350 351 351 351 350 350 349 349 349 349 349 351 351 352 351 351 354 355 356 356 357 357 356 358 358
306 297 298 300 301 302 305 307 306 304 304 303 301 301 301 303 302 306 307 311 315 316 314 317 315 316 319 323 326 329 329 327 328 328 328 329 330 330 330 331 332 334 336 338 338 340 342 343 343 345 346 348 346 347 348 348 349 350 350 350 350 351 350 351 351 351 351 351 351 349 348 349 351 350 351 349 350 353 356 356 356 356 357 356 357 359
299 297 300 303 305 306 306 306 304 305 303 301 300 300 299 300 304 307 308 309 311 314 309 313 313 314 319 322 326 327 327 328 330 330 329 329 329 330 330 331 332 333 333 335 337 338 340 341 342 343 345 346 347 347 347 349 349 350 350 350 351 351 351 351 352 352 350 351 352 351 350 350 350 351 353 352 351 354 354 356 356 357 356 357 356 357
296 300 303 306 307 305 304 304 303 303 303 301 299 297 298 302 301 299 307 309 309 311 307 309 312 313 319 322 323 327 328 328 330 331 330 331 330 330 330 331 331 332 332 333 335 336 338 341 341 342 343 345 347 347 347 348 349 350 351 350 351 351 351 351 352 353 352 352 353 353 351 351 351 349 351 352 352 351 352 354 356 357 356 357 357 357
299 301 307 306 306 306 304 303 302 301 300 302 301 300 299 300 302 302 302 305 307 308 310 309 309 309 313 316 319 324 328 328 329 330 330 331 332 332 333 333 333 332 332 333 335 336 337 338 340 340 342 344 345 346 347 348 349 350 350 351 351 352 352 351 353 353 352 352 351 350 350 351 350 350 349 348 348 349 351 353 354 356 357 357 357 357
301 305 307 305 305 305 305 302 302 302 299 300 302 302 302 302 301 302 303 304 301 300 305 305 298 298 308 315 317 320 323 324 327 327 327 329 330 330 330 331 333 334 334 334 334 336 337 338 340 340 341 343 344 345 347 349 350 350 350 351 351 352 352 352 352 352 352 351 349 348 346 345 346 345 345 345 346 346 347 350 354 356 358 357 357 357
302 306 305 304 304 304 304 304 304 303 300 298 301 305 304 303 302 301 303 304 296 295 302 308 298 293 303 311 315 318 320 321 324 325 327 328 329 329 330 331 332 333 333 334 335 336 336 337 338 339 340 342 343 345 348 349 349 350 350 351 351 352 352 353 352 352 352 349 349 348 347 347 346 345 347 349 349 349 348 352 353 355 357 357 357 357
304 303 303 303 303 303 302 302 305 303 300 298 305 304 303 302 301 301 301 301 298 302 304 304 303 296 296 308 316 318 318 319 320 322 325 327 328 329 330 331 332 333 333 333 334 335 337 337 338 338 340 341 343 346 347 348 349 349 349 350 350 352 353 353 353 352 352 349 349 348 347 348 347 346 346 348 348 349 350 352 353 354 356 357 357 357
304 302 302 302 302 302 301 304 307 305 302 302 303 304 302 302 302 302 300 299 300 299 296 300 304 297 296 305 316 318 315 316 318 320 322 325 327 328 330 331 332 333 334 334 333 334 336 336 337 339 340 342 343 345 346 347 348 349 349 350 350 351 352 352 353 352 352 352 349 348 348 347 349 348 348 349 348 347 350 350 352 353 355 356 356 357
306 305 305 305 302 300 304 306 307 306 302 304 304 305 304 304 303 301 299 299 299 296 294 298 301 294 292 299 310 315 315 314 317 320 322 324 326 327 329 331 332 333 334 334 334 335 336 337 338 339 341 341 342 345 347 347 348 349 349 349 349 349 351 351 351 353 351 351 351 348 347 347 347 348 347 346 345 345 347 348 351 352 353 355 355 356
305 311 311 306 304 305 304 306 308 308 308 306 306 304 302 301 301 302 300 299 298 292 295 300 301 298 292 297 309 311 313 317 318 320 322 324 325 327 329 330 332 333 333 334 334 335 336 338 338 339 339 340 342 344 345 346 347 348 348 348 348 349 351 351 351 352 350 351 350 349 348 347 346 347 345 344 344 345 344 345 348 351 353 354 354 355
306 307 307 308 311 309 307 305 308 310 309 308 302 302 299 298 300 297 297 298 292 290 296 300 300 299 292 291 302 317 320 320 320 319 320 322 324 325 327 329 332 333 333 334 334 334 335 336 337 338 338 339 340 342 344 345 346 347 347 347 347 348 350 350 351 351 350 350 350 350 348 347 347 347 346 345 345 345 344 344 346 349 351 352 353 354
300 303 307 308 315 310 305 304 304 306 307 306 303 300 295 289 292 290 290 290 290 290 294 296 298 294 295 298 300 314 319 320 322 322 322 323 324 325 327 329 331 333 333 334 334 334 334 334 335 336 337 338 339 340 342 344 345 346 346 346 346 347 349 349 350 350 350 350 350 349 349 348 348 347 347 346 346 346 345 345 344 347 349 351 351 352
294 301 305 306 307 312 308 301 298 299 303 303 301 298 293 289 287 285 286 286 287 290 297 296 297 294 294 299 304 309 318 322 323 323 324 324 325 325 327 328 330 332 333 334 334 335 334 335 335 336 337 338 339 340 342 343 344 345 346 346 346 346 348 349 349 350 349 349 350 350 349 349 349 348 347 347 346 346 346 346 345 346 349 350 351 352
288 290 298 303 301 308 308 306 304 300 302 303 306 301 298 294 289 286 287 287 288 287 293 296 293 288 294 296 302 307 316 322 324 325 325 325 326 327 328 329 330 331 332 334 334 335 335 335 335 336 337 338 339 340 341 343 344 345 345 346 346 346 347 348 349 349 349 349 349 350 350 349 349 348 348 348 348 346 346 346 345 346 349 350 351 352
291 292 297 306 305 307 306 309 308 304 301 304 306 305 297 297 296 290 287 286 288 288 290 290 290 292 298 300 306 306 312 318 322 323 324 323 325 326 326 327 328 330 332 333 334 334 335 336 336 336 337 338 338 339 341 342 343 344 345 345 346 346 347 348 349 349 349 349 349 349 349 349 349 350 349 348 349 347 347 347 347 345 348 350 351 353
290 290 298 299 303 305 307 309 308 307 295 300 302 298 301 302 301 295 297 296 293 289 291 292 293 293 295 300 300 302 305 311 317 320 321 322 323 325 325 327 328 330 332 333 334 334 335 335 336 336 337 338 339 339 340 342 343 344 344 345 345 346 347 348 349 349 349 349 348 349 349 348 348 349 348 347 348 348 347 347 348 347 347 349 351 352
286 287 296 298 296 302 306 308 309 308 302 299 297 301 302 304 303 297 289 290 288 285 287 289 291 291 292 292 303 299 302 305 311 316 319 321 323 323 325 326 328 330 332 334 334 335 336 336 336 336 337 338 339 339 340 342 343 344 345 345 345 346 345 347 348 348 349 348 348 348 348 348 348 348 349 348 348 350 348 346 348 349 347 349 351 353
292 286 294 298 299 301 304 303 302 307 309 304 301 305 301 291 294 295 292 288 285 285 284 287 291 292 292 294 297 299 299 301 307 313 316 318 321 323 324 326 328 330 332 333 334 335 335 336 336 336 337 338 339 341 341 343 344 344 345 346 346 346 346 347 348 349 349 349 348 349 349 348 348 348 349 349 348 349 349 347 347 349 349 349 351 353
294 289 291 299 298 300 300 299 294 298 303 307 304 303 302 297 297 292 295 291 290 284 287 286 289 291 295 296 297 300 300 301 306 310 314 317 319 322 324 326 327 329 331 333 334 335 336 336 337 337 337 338 338 340 341 342 344 344 345 346 345 347 347 347 347 349 348 348 348 348 348 349 349 349 349 349 348 347 349 350 349 349 350 350 352 352
290 296 284 293 299 300 294 296 295 299 297 298 298 297 299 299 298 299 294 292 291 283 282 283 287 290 293 297 299 300 301 301 305 311 314 317 319 322 325 326 327 329 331 333 335 336 336 337 337 338 338 339 340 341 342 342 343 344 345 345 346 345 346 346 347 348 348 348 348 348 347 347 348 348 349 349 349 348 348 350 351 350 350 351 351 352
290 291 286 290 291 291 294 300 300 299 299 297 298 297 299 297 292 292 290 294 291 290 283 283 287 290 295 303 302 302 303 303 303 311 316 318 320 322 324 327 328 329 331 333 335 336 337 338 338 338 339 339 339 340 341 343 343 344 344 345 346 346 346 346 347 347 348 348 348 347 347 347 348 349 349 348 348 348 348 348 350 352 351 350 352 353
295 293 290 286 289 292 296 300 303 303 303 302 300 298 300 299 294 292 287 289 293 292 294 290 287 293 300 301 304 304 305 306 304 309 315 320 321 322 324 327 329 330 331 333 334 336 337 338 338 338 338 338 339 340 341 342 343 344 344 345 346 346 346 347 347 348 348 348 347 347 347 348 348 348 348 348 348 348 349 349 349 352 352 351 351 353
301 290 285 287 290 294 297 300 301 303 303 301 301 300 299 298 298 298 296 291 292 291 292 289 289 292 297 303 304 305 306 306 305 305 312 319 322 323 324 326 328 330 331 333 335 336 337 338 338 338 338 338 339 339 341 342 343 344 345 346 346 346 346 347 348 349 349 348 347 347 347 347 348 348 348 348 348 348 349 350 350 352 352 352 352 351
287 289 286 282 284 290 295 296 298 300 300 296 295 297 299 301 300 297 296 294 294 292 293 288 288 294 298 309 307 307 307 305 305 303 311 315 321 324 324 326 328 330 331 332 333 335 336 337 337 338 338 338 339 340 341 342 343 344 345 346 346 347 348 348 348 348 349 349 348 347 347 347 347 347 347 348 348 348 349 350 351 351 352 353 352 352
290 289 286 279 278 281 284 285 284 285 289 293 295 299 301 298 299 296 294 292 291 293 293 291 293 296 297 300 302 302 303 305 306 304 308 314 318 323 324 326 328 330 331 332 333 334 335 336 338 338 338 339 339 340 341 343 344 345 346 347 348 348 348 348 349 349 349 349 348 348 347 347 347 347 348 348 348 349 349 350 351 351 352 353 353 353
291 292 290 286 284 282 285 286 291 294 291 289 293 295 295 297 300 298 294 291 291 289 292 295 296 297 298 302 302 303 303 302 304 303 304 310 317 323 325 327 328 329 331 331 333 334 335 336 336 338 338 339 339 340 342 343 344 345 346 347 348 349 349 349 349 349 349 349 349 349 348 348 348 348 348 349 349 349 349 350 350 351 351 353 354 354
293 286 288 289 288 288 290 290 292 293 289 290 290 291 294 296 299 297 295 294 294 291 290 295 297 296 299 301 303 303 302 302 303 303 304 310 318 323 325 327 335 329 330 331 332 333 333 335 336 337 338 339 339 340 342 344 345 345 346 346 348 349 350 351 350 349 349 349 349 349 349 349 349 349 349 350 350 350 350 350 350 350 351 352 352 354
289 285 289 289 289 290 291 291 291 291 291 291 292 293 294 297 298 297 296 296 297 295 293 295 296 296 299 302 304 304 302 304 304 304 307 313 320 324 325 326 327 327 329 330 331 332 333 334 335 337 338 339 339 339 341 343 344 346 347 348 349 350 350 351 350 350 350 349 349 349 350 350 351 351 350 351 350 350 350 350 350 350 350 350 350 352
291 286 289 290 287 288 289 290 292 291 292 294 295 297 299 299 299 300 299 297 298 297 298 298 297 298 301 303 304 304 304 305 303 308 311 317 319 323 324 324 326 327 328 329 330 332 334 335 336 336 337 338 339 339 340 342 343 345 346 347 349 350 351 351 350 350 350 349 349 350 350 351 351 351 351 350 350 350 350 350 350 350 349 349 350 350
291 287 293 288 286 286 289 291 293 292 291 291 296 299 301 302 301 301 300 299 299 298 300 297 298 298 302 302 303 307 310 313 315 313 313 316 319 321 322 323 325 327 328 329 330 332 333 335 336 336 337 338 338 339 340 341 343 345 346 348 349 350 351 352 351 350 350 350 351 351 351 351 351 351 350 351 351 351 351 351 351 350 350 349 349 349
291 288 290 287 283 283 289 290 290 291 292 293 296 298 300 303 296 297 297 304 299 297 298 300 297 297 302 305 310 307 307 309 312 312 313 314 317 320 321 323 325 326 327 329 330 331 332 334 334 335 336 337 338 339 340 341 342 344 345 347 348 350 352 352 351 351 350 351 351 351 351 351 351 351 351 351 350 351 351 351 351 350 350 349 349 349
290 288 286 284 281 282 287 289 289 290 295 293 294 297 300 307 308 309 309 311 309 307 300 297 298 301 303 309 309 308 315 321 324 322 314 315 317 320 321 323 325 326 328 329 330 331 332 333 334 336 337 338 339 340 341 342 343 343 345 346 348 350 351 352 352 351 351 351 351 351 352 351 351 351 351 351 351 351 351 350 350 350 349 349 350 349
290 289 286 287 280 281 286 288 291 293 288 288 298 303 302 303 305 305 305 308 310 311 305 305 306 309 306 306 307 317 327 327 327 329 329 319 316 317 320 322 325 327 328 329 330 331 332 333 335 337 338 339 340 342 343 344 344 345 346 347 349 349 350 351 352 352 352 352 352 352 352 352 351 351 351 352 352 351 351 350 350 350 350 350 350 349
289 289 286 287 282 280 285 288 291 286 291 301 305 304 303 304 303 304 309 310 310 310 311 311 309 311 322 326 327 328 330 332 333 333 335 335 330 326 326 327 322 324 326 327 328 330 331 332 334 336 338 339 341 342 344 345 346 346 347 348 348 349 350 351 352 352 352 352 353 353 353 352 352 351 351 352 352 351 351 350 350 350 350 350 349 348
288 287 287 286 284 285 285 284 283 288 300 301 304 303 304 305 304 304 308 310 310 310 310 310 313 315 321 327 330 330 331 332 333 334 334 337 338 335 335 335 334 330 329 326 326 327 329 331 333 335 337 341 343 343 345 347 348 348 348 349 349 349 350 351 352 352 353 353 353 353 354 353 352 352 352 352 351 351 350 350 350 350 350 350 350 349
291 290 288 283 287 279 284 282 283 292 294 301 298 298 300 297 299 299 297 308 311 311 310 310 315 317 318 320 324 330 330 332 329 329 334 334 336 339 340 340 341 341 341 341 341 341 340 340 340 342 346 343 343 344 345 349 351 350 349 349 350 350 350 351 351 352 353 354 354 355 355 354 353 353 352 352 351 351 351 350 350 350 351 349 349 348
293 288 289 284 283 286 280 281 282 284 286 293 297 301 305 306 306 305 302 307 313 312 312 312 315 317 319 321 321 321 324 326 322 325 332 335 336 336 339 341 343 344 346 347 348 346 345 346 349 351 348 347 347 347 348 351 352 351 350 350 350 350 350 350 351 353 354 355 356 357 356 356 355 354 353 353 352 351 351 352 352 351 351 349 348 348
293 293 290 286 283 283 281 279 280 280 285 296 297 301 305 307 307 308 305 304 312 311 312 312 316 319 321 322 326 328 326 320 321 326 331 335 337 338 338 340 342 343 344 346 347 348 349 349 350 351 351 350 349 347 349 351 352 351 350 351 351 351 350 350 351 353 354 356 357 358 358 358 357 356 355 354 353 353 352 352 352 352 352 351 350 349
290 290 289 284 282 284 282 281 279 287 283 296 301 303 306 310 309 305 298 300 309 311 311 311 314 319 322 324 328 328 325 320 321 327 333 336 338 339 339 339 341 343 344 345 346 348 349 350 349 348 349 350 350 351 349 350 352 353 351 352 352 352 351 352 353 354 355 356 358 358 359 359 358 357 356 355 355 354 354 354 353 352 351 351 351 350
287 289 288 283 283 285 285 283 285 288 301 301 303 306 309 310 309 299 292 303 312 313 312 311 311 314 321 323 325 323 326 329 330 332 335 337 338 339 341 342 342 344 345 345 346 351 347 348 348 347 348 348 350 352 353 352 351 350 350 350 350 351 353 354 355 355 355 356 357 358 358 359 359 358 357 357 356 356 355 354 353 352 351 351 351 350
288 289 290 288 284 282 282 281 282 291 300 302 305 308 310 306 296 294 307 315 314 313 314 311 309 311 316 321 323 324 327 330 333 334 334 336 337 338 340 341 342 344 345 349 352 349 346 346 346 347 348 350 352 353 352 353 352 350 348 345 345 347 350 350 353 354 353 354 355 357 358 358 359 359 359 358 357 355 354 355 354 353 352 351 351 349
288 284 283 284 288 288 287 283 285 282 297 304 305 306 308 298 300 310 313 313 314 312 311 310 310 310 312 316 320 322 324 325 327 329 331 333 335 337 338 339 340 340 342 343 344 348 345 343 343 344 345 348 350 350 350 351 351 349 347 347 346 349 349 350 349 351 352 352 354 356 357 357 357 358 359 359 358 356 355 355 354 353 352 351 350 349
295 288 286 289 295 285 286 285 286 296 299 305 307 297 305 307 311 314 312 308 312 310 311 310 310 311 312 313 315 318 321 323 324 326 328 330 333 335 337 338 339 340 341 343 344 344 345 342 342 343 344 346 348 349 349 350 349 350 349 347 348 349 350 350 349 349 350 351 353 355 357 357 358 358 359 358 358 357 355 354 354 354 353 352 350 349
295 291 293 286 293 290 289 294 300 301 305 307 309 311 312 313 314 314 314 311 308 309 312 312 311 312 312 313 315 315 316 318 321 324 325 327 330 331 333 335 337 338 339 340 342 344 343 341 340 341 342 343 344 346 347 348 348 349 347 347 351 353 352 350 349 348 349 349 350 353 356 357 358 358 358 358 358 356 355 355 355 353 353 352 351 350
296 297 296 295 292 296 298 300 304 301 304 308 312 312 312 311 311 312 312 309 310 312 312 312 313 312 313 315 315 316 316 317 318 321 324 325 326 328 332 333 335 337 338 340 341 342 340 341 341 341 340 340 341 343 346 344 346 345 343 346 350 352 353 351 347 346 347 348 349 351 355 356 357 358 358 358 358 358 357 356 355 354 354 353 352 351
295 296 294 291 294 289 287 297 297 300 299 307 307 309 309 309 310 311 311 311 310 313 314 313 313 313 312 314 315 316 317 318 318 319 321 323 324 325 328 329 331 333 335 336 340 342 339 339 339 339 339 339 338 340 342 342 343 342 344 346 348 351 352 351 347 348 346 346 347 349 353 355 356 357 358 358 358 358 358 357 357 355 353 354 354 352
290 298 292 293 292 289 291 294 297 300 299 304 305 304 303 303 305 307 309 311 315 316 315 314 314 313 314 312 314 315 316 318 318 318 320 321 323 324 325 328 328 330 333 336 338 339 336 336 335 336 336 336 335 337 339 341 341 341 342 345 348 349 350 353 350 347 347 347 347 349 351 353 362 359 357 357 356 356 356 358 358 356 355 355 355 353
294 297 288 292 289 292 295 296 298 297 301 302 302 302 304 303 303 304 305 305 307 314 313 313 313 313 314 313 314 315 313 315 317 318 319 320 322 323 324 326 328 328 330 333 336 339 336 334 335 333 334 334 334 335 337 337 339 341 342 344 347 348 350 351 353 350 346 345 347 349 352 353 357 356 350 326 316 310 310 314 320 330 343 335 335 354
293 289 292 291 287 287 288 292 295 290 290 295 297 300 303 304 303 304 304 303 303 308 313 312 310 312 314 315 315 315 314 313 316 318 319 319 319 321 324 326 326 327 329 331 334 334 335 337 335 334 334 333 334 335 337 337 338 340 342 343 346 347 349 350 348 348 345 345 347 349 352 353 353 348 339 332 323 318 314 308 302 305 318 326 319 311
291 291 291 287 287 287 293 295 296 295 294 295 297 299 303 304 303 301 303 303 303 306 312 312 311 312 313 314 315 316 314 313 315 318 320 318 318 321 324 325 325 326 328 330 331 333 334 334 337 335 335 333 335 335 335 337 337 338 340 341 343 345 344 345 346 347 345 347 347 348 352 353 347 340 334 331 330 330 327 325 319 301 299 305 307 301
Wind_Speed
6 10 13 17 18 17 14 11 10 7 6 3 3 5 8 6 6 4 4 4 7 9 12 12 10 7 11 16 18 19 17 16 16 17 17 16 16 17 16 17 18 18 19 18 19 19 20 19 17 16 15 15 15 15 15 15 15 15 14 13 14 12 12 11 10 9 10 10 9 8 10 10 8 8 7 6 6 6 6 7 7 7 7 6 6 5
9 10 14 18 13 11 9 6 7 8 9 10 5 3 7 6 10 7 5 2 3 6 9 10 9 10 12 15 18 17 19 19 19 19 19 18 18 17 19 19 19 19 11 14 15 18 19 17 18 16 15 15 17 15 16 17 17 16 15 15 14 11 12 13 13 11 11 11 11 11 11 9 8 7 8 7 6 6 6 7 7 7 7 7 6 6
11 15 20 12 6 5 6 6 7 11 10 6 7 5 4 7 2 7 7 4 2 6 7 6 10 11 13 14 16 20 22 20 21 23 23 21 20 17 18 19 19 16 15 15 17 17 19 21 20 17 16 16 18 17 18 18 17 16 15 14 13 12 13 13 13 11 11 10 9 9 8 9 7 5 5 5 5 5 6 7 7 7 7 7 6 6
8 16 14 7 8 6 5 7 8 8 8 9 7 5 11 1 2 6 9 4 3 6 3 6 10 9 13 12 16 20 22 18 20 22 21 21 22 22 22 21 20 20 19 19 20 20 19 20 19 17 17 17 17 16 16 17 18 16 15 14 14 14 14 13 13 13 11 10 8 6 4 5 6 4 4 4 4 6 6 7 7 6 7 7 7 7
12 3 9 6 10 12 11 7 9 8 10 9 9 8 8 5 9 7 3 4 2 3 2 0 2 2 9 11 9 13 17 16 17 17 15 16 19 22 20 18 18 21 21 20 19 19 18 20 21 21 19 17 17 17 17 17 17 13 18 17 17 15 15 13 14 14 10 8 6 5 3 3 3 2 5 4 4 6 7 7 7 9 6 7 7 7
12 12 8 12 9 11 11 10 11 9 9 9 11 13 9 7 8 5 3 4 4 7 2 4 1 4 7 17 19 14 12 15 14 17 19 19 16 13 14 18 17 17 17 20 22 23 23 21 19 17 18 18 18 18 17 17 17 16 16 16 16 13 13 14 15 14 11 10 10 9 8 8 7 7 7 10 11 8 9 11 8 7 8 7 7 7
9 7 5 14 13 9 12 12 9 9 10 7 14 12 11 10 9 3 0 0 4 6 5 3 7 6 3 14 17 15 17 21 13 18 21 19 16 17 18 17 18 19 17 16 17 18 19 19 19 19 19 20 19 19 17 16 17 18 16 16 16 14 13 13 13 14 12 11 10 12 13 12 12 12 10 10 10 9 6 5 7 8 7 7 8 7
6 10 7 6 12 13 11 12 11 12 8 14 8 5 5 8 12 8 3 4 6 2 6 2 3 4 2 11 16 19 20 20 17 19 20 18 17 19 19 18 18 19 18 18 20 20 20 20 20 21 21 19 20 17 16 16 16 18 18 17 16 13 13 12 13 14 14 13 12 13 13 11 12 13 12 12 10 6 6 6 7 6 7 7 7 7
10 11 13 13 8 12 16 15 10 11 12 6 2 5 5 7 12 5 4 5 5 4 11 8 1 3 4 7 13 17 19 19 20 20 20 19 20 21 21 20 20 20 20 20 19 21 21 21 21 20 19 19 18 16 17 17 16 16 16 17 16 15 14 13 15 15 15 13 13 13 12 11 11 10 7 4 4 5 6 6 5 6 6 7 7 7
7 8 12 13 9 11 9 8 9 10 11 5 2 5 5 5 7 5 6 6 4 3 13 12 4 4 6 5 9 11 17 20 20 22 21 22 22 22 21 20 20 18 17 18 20 20 21 21 21 20 19 17 17 16 16 16 15 16 15 16 17 16 14 14 16 16 16 15 12 12 12 13 10 8 5 5 6 6 6 7 7 6 6 7 7 7
1 7 12 11 14 8 4 6 10 11 10 3 6 2 2 4 6 1 6 5 1 10 14 14 9 5 7 5 12 11 15 17 17 15 15 18 19 20 21 21 19 18 18 18 18 18 19 20 20 18 18 18 17 15 16 16 16 15 16 16 17 17 14 15 16 16 17 15 13 13 13 14 12 10 7 7 7 6 5 7 7 7 7 7 7 6
9 3 6 6 11 5 7 6 8 12 11 8 3 7 2 7 1 1 1 4 9 12 9 13 11 8 9 5 7 15 19 22 21 21 21 20 20 20 19 18 18 19 19 18 16 17 18 17 17 17 18 18 18 16 17 16 16 16 16 16 18 17 16 15 16 16 16 15 15 14 14 14 12 11 9 10 11 10 9 9 8 7 6 6 6 6
8 13 3 3 8 15 9 10 7 9 11 10 6 6 10 2 2 7 4 9 11 9 4 5 4 3 13 9 8 17 18 20 21 20 24 25 24 23 21 21 19 19 18 17 17 16 17 18 19 19 18 17 18 18 18 18 17 16 16 17 19 18 17 16 16 16 16 16 15 15 15 14 11 11 10 10 10 9 10 8 7 7 7 6 6 7
8 4 11 11 4 10 10 13 7 8 10 12 12 9 9 8 7 9 5 1 2 3 8 6 4 10 1 8 15 15 21 21 22 21 22 26 25 25 23 21 19 18 18 18 18 18 18 18 18 19 19 19 17 18 18 18 17 16 16 18 19 19 18 16 16 17 17 17 16 15 14 13 11 11 11 10 10 9 9 8 9 9 9 9 10 9
9 11 14 13 12 8 13 13 12 7 9 12 10 11 12 8 5 10 5 10 9 5 7 4 6 6 10 6 8 16 20 23 21 22 20 20 24 24 22 21 21 19 19 18 17 18 19 19 20 19 19 18 18 18 18 17 17 16 16 17 19 18 18 17 17 16 17 16 16 14 13 12 11 11 10 10 9 9 9 8 8 9 8 9 9 10
10 10 2 13 5 9 12 12 10 9 6 10 11 8 7 17 5 4 5 4 3 2 6 4 7 6 8 3 4 10 15 19 22 22 17 14 13 12 12 15 17 18 18 17 18 19 18 18 18 18 17 18 17 19 18 18 17 17 18 19 20 21 19 18 18 17 17 16 14 14 13 13 12 10 9 8 8 8 8 8 8 9 9 9 8 7
7 5 5 11 10 11 13 9 9 12 10 7 9 15 12 7 5 4 4 1 1 2 12 2 2 3 7 5 5 5 7 12 16 20 19 16 15 15 15 16 17 17 17 17 19 18 19 17 17 18 19 17 17 18 19 20 19 20 19 19 20 20 18 19 19 18 16 16 14 14 14 13 12 12 12 12 12 11 9 8 8 8 8 7 6 7
5 13 17 9 9 8 6 9 12 14 6 5 10 10 4 4 2 5 6 1 4 8 7 1 7 2 5 9 2 5 8 12 12 16 19 20 17 17 17 18 18 18 19 21 22 21 20 20 21 18 17 19 20 20 20 20 19 18 18 19 20 19 19 18 18 18 16 16 15 14 14 14 14 13 13 12 11 10 9 8 8 7 7 9 9 8
7 7 7 6 10 6 8 3 6 11 15 12 8 9 10 6 11 7 2 9 6 6 3 3 2 5 9 6 4 8 9 8 11 15 17 18 17 20 20 21 20 20 18 17 18 16 15 15 16 18 19 20 19 19 19 19 18 17 17 18 20 21 20 19 16 16 14 15 13 12 14 14 13 12 12 11 10 9 10 10 10 10 10 8 7 7
5 3 8 4 5 9 8 3 11 9 8 13 7 11 7 5 9 7 9 1 3 4 1 7 1 8 5 6 8 10 9 11 11 13 16 19 19 18 18 19 20 18 18 18 17 16 17 19 20 20 20 20 20 19 18 18 17 19 18 18 18 18 17 17 17 16 15 15 13 13 12 13 13 13 13 12 11 11 11 11 11 11 9 10 8 8
4 2 4 9 13 7 4 5 9 12 10 8 9 8 5 5 1 5 1 5 6 4 3 2 6 6 6 6 8 10 8 9 13 13 15 16 17 19 19 20 19 20 19 18 18 18 19 19 19 18 18 18 16 15 15 16 18 18 16 17 18 18 17 17 17 16 15 14 14 14 14 14 13 13 12 11 11 12 11 10 10 10 10 6 8 8
3 1 6 11 11 5 7 6 3 4 3 3 8 10 10 10 4 11 10 1 4 2 3 3 10 5 9 5 9 8 8 7 11 15 14 15 16 17 18 20 20 19 20 20 20 20 19 19 19 17 14 13 14 15 17 17 16 17 17 17 17 16 16 18 17 15 14 13 13 15 14 14 13 12 11 12 11 12 11 10 10 9 7 9 9 8
4 4 4 10 7 10 17 20 14 14 11 9 6 8 9 6 4 6 7 7 4 6 4 3 1 12 7 7 10 11 11 13 11 14 15 15 18 18 17 20 20 21 21 20 20 20 19 19 19 18 18 18 19 18 18 17 17 17 17 17 16 17 17 17 17 15 14 14 14 15 14 14 13 12 13 13 11 12 11 10 10 8 9 10 8 8
10 2 8 8 9 12 17 16 15 13 9 9 5 5 8 10 8 10 8 5 6 2 7 4 4 12 5 3 5 7 10 11 7 13 14 13 14 18 19 17 19 18 19 20 20 19 18 17 16 14 14 15 14 14 17 17 16 16 17 17 16 18 18 17 15 15 14 14 14 15 14 13 12 13 13 13 12 13 12 11 10 9 10 10 8 9
5 2 4 6 7 8 10 3 2 7 7 5 5 9 10 9 11 3 4 2 7 8 7 5 11 14 5 2 3 1 4 4 6 7 14 15 14 15 16 17 17 18 18 18 17 16 15 14 15 16 17 17 17 16 16 16 17 17 17 16 17 17 17 16 14 14 14 14 15 14 13 13 12 13 14 14 12 14 13 13 11 10 11 10 10 10
3 3 3 2 3 6 11 10 1 8 8 12 9 10 7 8 10 6 9 4 10 6 8 7 13 12 8 9 11 9 5 5 7 6 11 15 17 16 14 14 15 16 17 18 18 16 17 17 17 17 17 16 16 16 16 16 17 16 16 17 17 16 15 15 13 14 14 14 14 13 14 14 14 15 15 15 14 15 14 13 12 11 11 11 12 11
2 3 3 4 5 8 7 9 12 8 10 7 13 14 18 15 12 9 5 6 11 4 8 12 10 10 10 13 15 17 4 6 8 6 13 13 13 16 16 16 15 15 16 18 17 17 16 15 19 19 17 17 18 17 16 16 17 16 16 16 15 14 15 15 15 15 15 15 15 14 16 16 16 16 16 15 15 13 13 13 13 13 12 11 12 12
1 3 5 7 10 12 11 12 18 14 15 16 15 17 18 15 11 9 11 13 7 9 11 5 5 10 16 14 17 19 10 7 7 5 11 13 15 16 15 15 15 15 15 14 15 16 18 19 19 18 17 17 17 16 15 15 16 16 16 16 16 15 15 13 14 15 15 15 15 15 16 16 15 15 14 13 13 13 13 13 13 13 12 11 13 13
1 3 4 6 9 10 14 18 18 14 13 13 14 17 19 19 11 9 12 7 10 10 12 3 6 8 15 16 18 18 7 7 9 10 14 17 15 13 13 15 16 16 15 16 16 17 18 18 17 18 18 18 17 17 17 15 14 13 13 13 13 14 16 15 15 15 16 15 15 15 14 13 12 12 13 13 12 13 13 13 13 12 12 12 12 11
3 4 5 4 12 13 18 13 12 11 10 13 14 15 16 17 17 13 13 5 14 7 7 8 9 14 13 17 15 12 4 7 6 3 3 2 9 13 13 14 16 16 16 18 18 18 19 20 19 18 18 18 18 18 17 15 15 16 16 16 16 16 15 14 15 15 15 15 15 14 13 13 12 12 13 13 14 14 13 12 12 12 13 13 13 12
2 3 5 8 7 14 14 9 6 8 10 12 14 11 12 15 15 14 11 8 7 5 2 5 7 11 11 5 6 3 2 2 2 3 10 13 12 12 13 15 15 16 17 19 18 18 18 19 19 17 17 18 19 19 18 17 16 15 15 14 15 15 14 15 15 15 15 15 14 14 13 12 13 12 13 14 13 13 13 13 12 12 13 12 12 12
3 3 3 3 7 10 6 6 15 15 13 9 7 11 17 12 3 2 2 3 3 8 6 2 3 8 11 3 1 3 4 5 3 5 7 9 9 11 13 13 13 13 15 17 18 17 17 16 14 14 17 17 18 18 17 15 14 14 16 15 16 15 13 14 14 15 15 15 14 14 14 13 13 13 13 13 13 13 13 12 13 13 12 12 13 12
3 2 3 3 5 9 6 11 17 15 9 3 4 10 13 13 10 7 9 11 8 6 5 10 12 4 5 5 2 2 6 6 6 4 4 5 5 11 14 15 15 15 16 16 16 17 17 17 17 18 18 16 16 17 17 16 15 16 16 16 14 12 14 15 15 14 15 15 15 14 14 14 14 14 14 14 14 13 13 13 14 14 13 14 12 10
5 3 1 1 1 7 12 15 12 1 2 3 3 10 14 9 14 14 10 10 12 9 2 4 8 9 5 5 2 5 9 6 3 4 2 1 4 5 7 8 12 15 15 15 16 17 16 14 13 14 16 17 17 18 17 16 17 17 15 14 12 14 14 14 14 15 15 15 15 15 14 14 14 14 14 14 14 13 13 14 15 14 13 12 11 13
4 3 2 1 2 6 9 12 1 3 8 0 3 11 15 9 12 5 7 12 15 17 18 12 8 4 8 7 4 7 11 10 13 15 15 12 5 2 3 4 5 6 9 10 11 11 12 15 14 12 12 12 14 13 12 12 11 8 8 11 13 13 14 14 15 15 15 15 15 14 14 14 14 14 14 14 14 13 14 15 14 14 13 12 13 14
4 4 3 1 3 4 5 5 1 9 6 11 3 8 15 3 4 12 2 18 17 16 13 10 10 7 6 5 3 2 6 14 17 17 15 14 11 5 6 4 4 7 7 6 8 7 8 9 12 15 15 11 11 10 11 12 10 10 12 11 12 12 13 14 14 14 14 14 14 14 14 14 14 14 14 14 14 14 15 14 14 14 13 12 12 12
9 4 3 3 2 2 2 5 8 7 12 5 3 11 14 9 13 10 6 9 14 13 14 12 11 10 8 3 3 5 4 12 17 14 15 14 12 10 9 7 8 9 9 7 8 7 6 7 6 6 5 6 9 10 9 9 10 11 10 11 11 12 12 13 14 14 14 14 14 14 14 14 15 15 15 14 14 15 14 14 14 13 12 12 13 13
8 6 5 4 2 1 2 6 5 3 5 2 6 12 7 8 10 8 5 4 12 17 14 13 10 11 10 9 8 9 11 13 13 10 12 13 11 10 10 10 10 11 10 10 10 10 9 9 9 8 10 8 7 7 7 9 10 10 11 12 11 12 12 13 14 14 14 14 14 14 14 14 15 15 15 14 15 15 14 14 13 13 12 13 13 14
9 9 6 1 3 5 4 0 3 1 3 3 15 18 16 9 8 7 4 6 10 17 17 14 13 12 10 10 8 5 2 12 6 8 8 9 10 9 10 10 11 12 11 10 12 13 11 11 11 10 10 9 7 3 9 12 12 11 11 11 12 12 13 14 14 14 14 14 13 14 14 14 15 15 15 15 15 14 15 15 14 14 12 13 13 13
10 6 5 5 5 5 3 3 4 2 2 11 16 18 19 17 13 2 3 5 10 16 16 15 14 14 14 13 10 9 9 16 6 5 6 7 8 8 10 11 11 12 12 11 11 11 11 11 15 14 12 10 6 4 5 9 11 12 11 11 11 11 12 13 14 14 13 13 14 14 14 14 15 15 15 15 14 14 14 13 12 12 12 12 11 11
5 3 5 6 4 5 6 5 4 4 1 10 16 20 17 17 5 3 5 3 10 13 13 13 14 14 12 13 10 10 11 9 7 4 6 8 10 12 11 10 9 9 11 11 10 9 13 13 13 12 11 7 6 6 7 8 7 5 5 6 8 12 11 7 7 9 10 12 12 13 13 13 14 15 14 14 14 14 13 12 12 12 12 12 11 11
2 2 4 4 5 5 4 3 7 2 3 12 17 16 15 6 6 6 4 5 8 11 11 12 13 14 12 12 10 10 10 10 9 9 10 11 11 9 10 10 10 11 10 10 10 10 12 12 13 13 11 9 9 8 7 9 9 6 6 4 2 3 2 2 4 5 5 7 9 11 12 12 12 13 12 12 12 11 11 11 11 11 12 10 10 12
3 4 2 4 3 2 2 4 1 3 3 14 16 8 16 7 5 4 3 4 7 10 10 11 12 12 12 12 12 11 11 12 12 11 11 11 12 12 11 11 11 11 10 11 12 9 11 12 13 12 10 8 9 8 8 10 10 7 5 6 2 3 3 3 3 6 8 8 8 9 10 10 12 11 9 10 12 12 12 11 11 11 11 11 11 11
6 2 2 2 0 2 0 2 2 4 8 9 8 6 6 6 7 4 4 6 8 11 11 10 11 11 11 10 11 11 13 12 14 12 12 12 12 11 11 11 11 10 11 10 9 8 9 12 11 11 9 8 8 8 8 9 8 7 7 5 3 2 2 3 4 5 6 8 10 10 10 10 11 11 10 11 11 11 11 11 11 11 10 11 10 10
7 3 4 4 5 1 1 2 4 5 3 3 3 2 3 7 8 9 6 6 9 11 11 8 12 13 12 10 11 11 12 13 12 11 11 11 11 11 11 11 10 10 10 9 9 9 9 10 11 10 10 8 8 7 7 7 8 7 7 4 2 3 3 1 3 4 6 6 7 9 10 10 10 10 10 10 10 10 10 10 10 10 9 9 9 9
7 3 5 3 4 9 6 1 3 3 4 2 6 7 8 9 10 12 10 6 7 7 10 8 10 12 13 13 10 12 12 11 11 11 11 11 11 11 11 11 12 11 11 10 10 9 8 9 10 10 10 9 7 6 5 6 6 7 2 3 3 3 3 1 2 4 5 5 6 7 7 8 9 10 11 10 9 10 10 11 11 10 9 9 10 10
6 9 8 5 9 7 1 6 10 7 8 3 5 8 10 11 10 9 10 9 7 7 9 13 11 10 11 12 12 11 13 13 13 11 8 9 11 10 10 10 10 10 10 10 8 6 8 8 9 9 9 9 7 6 5 5 4 3 0 2 2 2 3 2 2 3 4 4 4 4 5 8 8 8 8 8 8 8 9 9 9 9 9 9 10 9
4 8 5 6 9 3 4 10 9 6 7 1 6 6 8 9 11 11 11 12 7 5 7 10 11 10 10 10 11 11 12 12 12 12 10 7 7 9 9 9 10 10 10 9 8 7 6 6 6 6 6 6 5 4 5 5 4 3 3 3 3 2 2 4 0 2 4 5 4 5 6 7 8 9 7 7 6 7 6 7 7 8 9 9 9 9
6 8 3 9 7 8 10 8 5 8 2 6 3 8 6 7 8 11 13 15 12 9 9 10 11 10 8 8 8 9 10 12 10 10 11 10 8 8 8 9 9 8 8 9 8 6 6 4 4 4 4 3 2 4 4 4 4 3 4 3 3 3 4 3 1 1 2 2 4 5 4 5 5 6 6 6 7 7 5 3 1 1 1 1 1 5
4 5 8 9 8 7 5 1 10 6 7 8 10 4 7 7 7 7 9 14 15 12 7 8 9 10 9 6 7 7 8 8 10 9 10 9 9 9 9 8 8 9 8 6 5 5 5 4 3 3 4 3 3 4 4 4 5 5 4 4 4 3 4 4 2 0 1 1 2 3 4 5 5 5 7 7 8 8 8 10 9 5 1 0 5 6
7 8 7 7 6 11 10 10 11 12 15 16 15 12 3 5 7 9 6 9 14 12 5 6 7 10 11 10 7 9 10 8 8 8 8 9 10 9 6 6 8 9 9 8 7 8 6 5 5 5 5 4 4 5 4 4 4 6 5 4 4 3 3 2 2 1 1 3 3 4 5 6 6 6 6 7 7 7 8 6 9 14 12 7 6 7
Wind_Direction
157 190 193 202 209 210 212 211 216 230 265 254 191 198 231 235 265 253 246 237 196 173 202 200 196 184 180 175 177 177 176 181 177 181 185 186 184 189 192 193 192 191 193 188 188 186 186 186 186 185 183 185 183 181 180 180 183 185 184 181 187 185 180 181 181 185 185 185 190 197 200 204 202 201 199 191 194 192 192 190 188 189 189 187 182 182
173 206 220 216 206 205 212 202 187 222 226 246 255 223 247 222 242 248 253 243 217 189 216 203 173 198 191 184 179 175 176 186 185 186 188 185 188 190 192 194 197 199 188 178 185 188 186 187 186 184 185 184 183 185 181 184 185 185 185 187 187 180 183 187 187 187 189 192 192 190 197 197 194 191 192 195 191 189 189 188 189 190 191 189 186 183
199 211 220 204 170 180 206 193 192 202 222 230 226 244 270 252 269 287 266 265 255 205 243 189 191 197 202 191 182 177 186 192 189 187 188 183 187 190 193 196 197 194 192 185 187 183 186 187 186 185 186 187 187 184 186 186 183 184 187 189 184 185 186 191 190 188 195 194 194 191 192 192 195 202 194 181 180 180 186 190 192 193 191 187 191 187
201 231 223 166 174 182 204 205 192 206 215 219 226 224 233 237 161 258 262 243 217 191 209 180 200 212 208 197 189 190 189 194 194 194 189 185 186 190 192 193 192 193 190 189 188 187 183 186 186 186 187 187 187 186 187 186 185 185 188 187 187 189 190 190 191 194 195 193 193 193 181 187 186 183 186 176 165 184 182 196 194 199 193 189 190 191
208 359 162 153 170 192 213 210 199 202 222 222 219 225 237 223 228 212 259 346 292 272 247 123 243 244 185 200 210 211 202 195 196 195 196 200 198 192 194 194 193 193 191 189 189 189 186 185 188 187 186 184 186 188 188 186 187 187 187 186 187 188 189 190 191 191 184 181 178 168 138 146 144 107 172 178 195 194 194 191 197 202 191 191 191 192
236 246 144 177 187 190 204 220 216 198 229 234 231 221 224 229 250 262 331 334 345 314 274 148 285 264 205 195 200 201 197 211 198 191 197 200 201 194 196 198 199 203 197 191 190 191 191 189 185 184 182 186 189 189 189 186 186 186 188 187 187 186 187 190 190 185 179 185 181 173 172 176 187 193 186 200 201 195 193 200 194 192 189 189 193 192
230 203 188 185 190 197 203 217 217 193 223 221 232 213 215 230 244 243 334 184 269 244 273 155 198 266 234 198 206 196 195 205 191 199 203 199 194 194 199 195 197 198 199 201 199 195 193 192 188 187 186 188 189 191 185 185 187 187 186 187 186 186 188 187 185 183 183 184 186 188 190 190 190 195 203 203 204 197 195 174 183 192 188 189 188 192
188 195 188 214 190 198 206 217 211 194 199 232 222 207 184 225 243 233 198 230 255 266 279 280 160 226 252 231 207 192 198 202 198 202 204 200 196 199 200 197 197 198 198 195 197 195 196 193 190 191 190 188 191 186 183 186 187 187 186 185 186 187 186 185 181 182 185 186 188 191 196 197 200 201 200 196 201 184 166 179 185 179 189 188 190 188
190 194 192 201 203 200 209 210 193 193 206 234 129 182 196 211 240 217 178 232 246 305 279 279 201 265 233 237 222 194 198 205 202 202 202 200 199 201 201 198 199 199 197 196 195 194 193 193 195 193 191 192 185 181 185 188 187 187 186 185 185 186 185 184 182 183 187 190 190 192 194 200 206 204 202 189 175 167 170 177 177 180 185 186 190 190
211 191 189 203 205 216 218 208 200 193 222 228 137 168 210 221 247 152 187 201 234 209 259 256 206 235 271 254 211 206 204 200 205 205 202 200 199 199 200 200 199 199 199 202 201 195 193 194 195 195 193 186 186 183 184 185 185 186 185 186 185 187 185 184 185 186 188 190 188 192 198 202 202 193 174 158 179 180 173 183 184 182 180 186 187 193
216 185 176 195 214 208 185 211 200 206 222 101 172 241 270 245 250 159 182 186 246 241 243 247 238 167 261 241 195 192 212 205 205 210 208 206 206 203 202 197 195 195 199 202 201 197 196 194 194 191 190 190 187 184 181 183 185 186 185 185 186 188 186 184 186 186 189 189 190 195 198 201 199 190 173 173 187 182 179 189 188 185 189 182 189 186
239 266 192 202 198 191 162 213 209 209 210 206 170 199 285 287 319 214 207 153 218 244 238 244 235 178 232 276 240 207 205 204 199 199 201 203 204 204 202 201 198 198 199 200 196 197 195 193 194 190 191 189 188 183 184 185 184 185 186 184 186 188 187 186 187 188 188 188 192 196 197 200 200 190 187 190 194 192 193 195 192 188 172 186 183 186
224 227 220 254 197 192 179 203 211 207 204 202 197 162 192 244 144 244 127 211 216 220 247 224 175 243 231 228 196 211 214 215 208 200 198 200 202 200 200 198 196 198 198 194 196 194 193 194 191 191 191 187 187 188 185 185 183 184 185 184 185 189 188 187 186 188 189 189 194 195 196 199 196 194 196 198 199 197 199 197 191 177 188 179 179 193
235 226 221 229 238 200 189 194 178 206 202 196 198 187 185 198 207 222 223 331 266 271 247 225 176 236 165 252 211 196 211 212 213 212 205 200 200 198 195 195 195 196 194 195 195 195 195 194 191 190 189 189 188 186 185 184 183 183 185 185 186 189 188 188 187 189 190 193 195 194 195 195 191 195 196 199 202 202 204 197 196 193 192 188 193 189
204 211 222 200 216 167 201 204 187 191 183 203 199 184 204 203 186 205 188 207 210 191 240 190 154 225 172 236 191 198 201 208 213 214 211 207 205 200 194 190 191 192 195 195 193 197 197 193 190 190 190 188 187 186 185 185 185 181 184 185 188 188 189 187 189 189 192 195 197 195 195 192 191 194 196 201 201 200 201 203 201 202 197 196 197 195
245 247 243 205 220 169 205 202 181 178 196 204 196 196 192 219 115 196 202 148 185 205 252 218 199 185 188 241 251 199 199 203 207 210 209 207 215 205 197 192 195 194 194 192 196 200 199 193 189 190 189 188 187 185 186 186 184 184 186 186 188 189 188 188 189 191 193 195 195 194 193 193 192 193 194 198 200 201 200 202 202 202 202 204 196 196
346 249 41 344 291 206 205 182 197 171 210 188 175 209 217 86 161 241 287 247 96 105 236 123 264 291 307 326 226 176 190 212 206 205 202 200 197 189 194 197 198 197 195 193 197 197 196 191 192 192 189 187 185 186 188 187 186 186 184 185 189 191 188 189 189 190 193 193 192 194 193 191 192 192 192 196 198 199 197 199 203 201 205 201 195 193
3 285 300 287 289 290 238 185 193 196 156 120 199 213 85 128 137 187 214 294 204 211 250 135 205 216 161 231 248 154 175 205 200 206 203 199 189 185 195 197 195 197 197 196 198 196 193 191 191 191 189 188 188 188 187 187 187 186 186 186 188 189 190 191 190 191 191 191 192 192 193 193 193 194 196 196 197 195 192 198 200 198 195 203 200 193
330 309 292 239 233 273 329 236 230 212 191 208 218 125 179 169 202 201 151 234 220 226 263 295 201 221 184 228 209 197 174 196 204 206 205 204 193 192 193 196 195 197 196 199 200 196 192 192 191 192 192 191 189 187 188 187 184 185 188 188 188 190 191 188 190 192 192 191 191 191 193 193 194 197 198 198 194 188 195 198 198 200 204 200 195 193
321 316 294 301 41 321 308 189 214 212 225 219 113 179 165 149 212 174 205 170 130 258 217 277 170 225 205 213 190 197 184 185 192 201 208 207 198 194 195 195 195 192 194 196 196 195 194 194 192 193 191 188 188 187 187 184 185 187 188 188 192 193 189 187 190 190 192 193 191 192 191 195 195 196 197 195 190 193 198 200 197 201 199 201 194 198
304 31 274 292 333 318 258 186 210 205 198 210 201 194 186 208 208 162 188 166 204 190 201 193 260 260 251 220 184 197 206 187 181 189 203 208 205 198 193 195 194 193 193 193 193 193 194 196 194 194 192 190 185 184 182 183 187 188 187 190 191 189 188 190 191 190 194 189 193 190 191 194 195 199 197 196 195 198 201 200 200 201 203 186 201 195
302 1 297 302 332 302 261 253 52 27 328 270 211 213 200 188 158 186 233 62 126 172 223 161 255 274 261 209 196 198 218 208 184 185 193 201 205 203 195 195 193 193 195 192 193 193 194 195 194 191 188 183 180 182 184 185 184 187 189 191 189 189 191 190 191 193 192 190 191 192 192 194 195 196 195 197 198 202 202 202 203 202 189 197 202 194
317 266 294 294 249 272 266 273 294 297 278 257 260 236 204 198 134 177 211 238 182 222 120 163 286 261 231 198 194 198 204 213 194 183 191 196 201 205 199 194 195 192 191 193 193 193 193 192 190 186 184 184 185 184 183 182 186 187 188 188 188 189 193 191 191 191 188 189 190 195 194 192 194 193 195 198 200 204 203 204 205 198 200 206 201 200
329 9 314 296 294 260 262 259 264 255 248 284 260 247 208 209 200 214 207 177 184 214 223 274 265 267 286 239 236 225 219 220 196 175 191 203 204 203 198 196 195 193 195 194 192 191 190 188 183 178 183 185 183 183 184 186 185 187 188 188 187 192 192 189 189 189 189 191 193 194 192 193 192 192 195 200 202 204 205 204 205 200 206 208 204 203
2 309 39 311 340 322 300 10 225 30 37 37 329 305 298 255 208 216 88 166 201 203 183 171 242 261 269 330 278 275 268 237 219 188 193 197 206 205 204 194 190 192 191 192 190 189 185 177 174 182 187 186 185 186 184 183 186 188 189 187 190 194 189 188 186 187 189 190 192 191 191 192 191 194 198 202 202 205 204 205 204 202 206 206 208 209
299 298 20 343 307 227 212 211 160 344 333 312 294 290 304 306 232 170 206 176 210 230 173 200 240 250 288 301 292 279 290 282 250 203 204 203 197 200 195 191 190 187 189 187 186 180 178 178 181 187 188 185 185 185 184 185 187 188 188 191 190 187 184 186 184 188 188 190 190 190 191 192 192 196 199 201 203 205 204 204 204 203 206 205 209 210
243 259 213 215 226 259 296 291 278 280 303 284 291 303 297 294 302 261 140 162 206 196 187 224 224 265 281 269 278 273 247 268 277 188 194 208 212 198 187 186 185 184 186 185 182 181 178 177 184 189 186 185 185 185 184 186 187 188 188 189 187 185 184 184 184 187 188 189 191 191 194 194 196 197 199 200 203 203 204 205 205 204 207 205 209 210
282 310 249 234 244 251 268 281 287 283 271 271 277 284 283 281 277 276 219 210 155 121 225 238 198 228 247 252 255 265 274 290 278 238 204 201 194 191 188 185 179 180 183 180 178 174 178 183 185 186 186 185 186 185 186 187 187 188 186 186 185 183 183 183 185 187 189 190 193 196 197 197 197 198 199 200 201 203 205 206 206 207 207 204 209 212
246 246 301 288 279 288 280 279 278 272 251 254 260 264 274 280 275 252 247 223 142 197 221 216 190 215 245 244 248 254 257 257 257 228 208 199 186 182 180 180 178 180 176 175 177 179 182 183 185 187 185 186 185 185 186 185 187 186 185 183 184 184 187 183 184 187 190 191 195 198 196 195 197 199 199 199 200 204 206 207 207 207 207 208 211 213
292 244 253 304 300 297 286 276 261 253 273 275 269 273 268 267 264 250 249 221 184 200 204 195 190 219 230 244 246 261 242 237 243 243 293 201 186 180 179 180 181 178 175 177 180 183 183 185 185 186 184 184 184 186 185 186 187 187 185 185 184 186 184 178 186 187 189 193 196 196 194 195 195 196 196 197 201 204 205 207 207 208 210 211 212 213
336 265 343 332 315 300 291 281 274 298 305 292 284 281 300 279 253 245 237 220 207 214 213 212 202 236 250 257 269 297 285 273 192 166 211 196 184 181 180 183 182 179 178 179 181 182 185 186 187 184 183 184 185 185 186 188 189 187 186 185 185 186 183 180 184 187 189 194 194 194 193 193 197 195 197 200 201 202 203 206 206 210 212 212 212 213
313 270 11 355 343 299 308 336 321 323 303 257 270 334 337 324 205 221 145 349 226 199 199 139 205 255 263 287 256 353 26 7 294 220 222 211 186 177 180 180 179 180 180 181 181 181 183 183 180 181 185 187 186 185 188 188 185 183 190 187 187 184 178 181 183 186 190 194 192 192 192 194 193 196 199 198 202 202 203 204 206 210 211 212 212 213
239 290 353 354 329 263 281 322 321 311 307 343 343 7 333 9 14 76 60 36 19 281 171 199 230 222 283 286 164 13 46 20 2 354 304 287 216 183 181 179 182 180 180 180 180 180 179 179 181 184 186 184 185 187 191 186 182 191 190 187 184 174 180 184 183 184 190 193 193 192 192 193 193 196 197 199 200 202 200 203 206 209 210 212 211 209
260 269 250 34 261 277 316 313 301 302 136 241 194 43 357 10 19 38 32 14 2 19 276 245 263 286 302 331 268 97 67 53 4 8 28 217 251 227 196 188 181 179 178 179 179 178 179 180 181 183 183 182 184 188 188 186 191 193 188 180 172 180 182 181 184 186 192 193 193 192 192 192 194 196 199 198 199 199 201 203 208 208 208 209 207 212
246 286 286 187 261 285 305 315 77 117 203 248 45 56 356 338 18 328 60 30 14 9 4 348 343 5 51 34 5 101 109 96 57 39 26 15 36 89 118 125 155 166 170 172 174 178 177 177 176 173 175 181 184 185 183 191 195 175 169 175 182 185 181 185 186 189 193 193 193 192 192 192 194 197 198 198 197 198 202 204 208 207 207 206 209 212
224 232 258 237 224 308 337 320 163 187 281 314 316 19 351 342 13 357 21 22 17 12 355 340 329 333 58 55 343 342 97 91 64 40 24 19 23 36 77 75 97 117 128 145 151 156 159 171 174 175 180 175 168 173 181 184 171 169 182 181 183 181 185 185 189 193 192 193 193 193 193 192 194 198 198 197 197 199 203 205 205 207 205 208 212 215
206 229 241 274 210 219 276 306 246 317 321 3 5 4 353 331 330 353 342 9 9 1 359 338 333 343 0 6 318 265 299 58 56 36 9 15 17 27 61 65 80 94 99 100 114 122 125 125 122 126 122 142 163 167 172 156 163 172 172 178 184 183 187 187 191 194 193 195 193 193 193 193 194 198 198 197 198 200 202 203 206 208 204 208 212 213
184 200 199 187 251 134 25 319 330 26 228 336 323 309 299 278 286 280 272 341 4 1 355 349 346 341 0 350 329 286 294 52 39 28 355 6 9 25 42 56 63 71 79 92 93 95 104 108 112 121 128 131 139 154 145 148 158 163 173 183 181 181 188 190 196 195 193 196 193 193 193 194 195 198 199 197 199 200 203 205 206 206 202 205 208 214
181 196 257 256 278 345 338 173 274 269 244 4 334 322 308 309 284 302 222 55 1 354 352 346 352 360 5 359 329 350 158 74 50 29 345 358 13 18 44 47 59 67 68 69 87 95 92 97 102 101 97 102 99 139 160 158 158 163 177 181 182 186 190 196 197 195 195 196 194 195 195 195 197 199 199 199 200 200 202 203 204 206 202 205 209 215
182 191 225 251 255 226 241 285 271 213 262 324 328 327 312 312 324 273 109 50 351 340 347 349 356 5 10 10 16 42 75 103 82 31 352 7 25 24 40 44 45 56 64 69 67 79 91 97 91 79 81 79 78 82 126 148 158 169 174 179 180 188 198 201 199 200 196 193 195 197 197 196 197 199 199 200 202 202 204 204 205 205 203 206 208 212
165 179 210 236 226 244 239 248 286 308 8 339 330 318 316 313 287 87 78 6 330 334 341 352 3 3 8 29 19 55 45 60 68 55 27 23 36 32 31 39 45 47 59 64 72 75 79 75 79 85 82 85 75 70 86 106 115 132 154 167 181 199 204 203 201 201 200 198 197 198 198 198 197 198 201 200 201 201 203 201 202 203 203 205 206 211
129 151 220 215 244 241 222 224 232 244 63 350 335 318 318 335 52 74 38 357 331 336 333 358 7 4 5 28 31 40 51 52 50 44 39 33 38 36 32 33 39 46 50 58 64 71 82 80 80 80 73 69 71 69 77 87 91 94 93 106 161 241 223 183 173 180 185 190 198 200 200 199 200 200 201 201 199 199 204 205 203 203 204 204 205 208
148 166 227 205 238 204 218 254 333 342 331 2 332 331 15 37 26 351 329 8 342 345 345 3 12 4 3 25 21 29 30 33 34 31 32 30 33 32 28 30 37 42 45 50 58 59 79 82 77 75 76 68 67 65 68 77 77 79 83 68 17 292 278 236 202 185 181 184 190 197 199 200 198 198 199 200 198 198 202 200 201 203 201 203 206 208
7 186 317 312 286 278 261 70 12 1 310 326 358 34 25 41 321 342 8 351 5 360 352 357 8 10 5 21 21 23 31 28 28 20 24 26 25 26 28 27 29 33 42 45 55 56 65 75 73 71 66 65 65 66 66 74 75 69 62 37 317 313 268 242 213 189 190 191 190 188 193 195 198 199 200 198 196 199 200 199 201 201 201 201 202 204
20 30 354 313 316 312 286 25 308 327 263 282 311 48 84 54 2 6 36 25 14 2 334 344 360 359 10 5 24 26 26 23 25 17 24 16 17 20 23 21 22 25 33 40 42 43 51 64 68 66 59 52 59 60 61 63 71 59 42 349 341 353 359 246 205 193 194 198 198 194 191 187 189 194 197 196 193 197 200 201 195 201 203 199 203 206
310 6 7 298 315 306 281 229 297 346 6 2 42 30 37 45 17 4 8 31 32 358 336 344 344 355 1 8 12 14 20 13 22 18 17 11 13 11 15 17 16 17 22 29 32 35 44 51 55 58 58 44 40 55 67 69 71 65 7 313 347 347 344 324 183 196 208 202 197 200 192 188 192 190 191 189 192 198 198 196 194 199 198 196 203 204
331 13 351 5 334 359 329 30 0 336 342 63 61 42 34 47 31 12 350 350 13 17 355 339 345 349 1 5 12 9 6 5 8 12 18 14 7 8 10 14 12 15 18 20 14 29 39 46 50 50 49 42 17 25 28 53 68 86 57 4 339 355 351 2 172 193 201 207 207 200 193 191 189 188 185 184 186 195 198 198 199 200 198 197 201 201
317 351 329 4 332 277 278 323 307 303 301 243 117 61 28 27 27 358 346 332 321 356 13 327 334 349 353 10 4 4 359 1 6 355 359 14 12 359 2 5 8 10 10 19 20 25 35 47 57 58 57 45 13 19 26 22 18 11 13 6 357 0 25 19 308 200 201 199 191 190 193 197 189 175 178 176 178 185 193 197 200 201 200 198 195 193
309 322 356 349 311 283 290 271 308 313 276 186 137 105 81 38 40 2 342 330 337 349 4 337 339 337 341 358 2 5 360 352 355 351 348 349 0 11 357 354 355 4 7 11 8 22 29 27 59 75 77 55 18 36 35 22 7 1 9 360 3 1 20 19 2 255 235 189 171 185 185 183 178 170 145 93 67 56 43 19 10 131 130 72 98 202
338 1 353 336 314 288 252 1 29 357 301 304 288 359 42 33 23 9 339 332 327 336 335 328 340 329 335 347 359 0 6 344 345 350 343 342 343 350 359 360 354 353 1 358 0 14 22 20 23 51 60 47 33 44 30 17 1 357 358 1 4 11 22 359 1 161 203 187 185 170 156 154 150 128 127 126 116 107 72 60 68 40 19 59 341 352
358 352 342 308 292 281 294 316 319 301 287 273 282 305 58 35 354 341 340 313 309 307 313 308 319 339 343 343 353 9 354 341 331 339 338 340 335 335 347 6 355 346 345 349 2 5 4 3 12 14 23 13 24 35 23 17 357 354 355 6 1 1 1 16 358 328 167 157 174 182 166 152 134 128 126 132 134 121 119 109 55 48 45 41 35 33